STARLINK-34360

Last updated on Thu Jul 03 2025 00:02:06 GMT+0000 (Coordinated Universal Time)

1 64304U 25123P 25183.58335648 .00056468 00000+0 91543-3 0 9994 2 64304 69.9997 120.0846 0003364 268.7268 322.3159 15.52477419 4806
UTC large
Height (km)
Speed (km/s)
/
Latitude / Longitude
Inclination (degrees)
Orbital Period (minutes)
Azimuth
Elevation
Range (km)
Doppler Factor

Next 0 passes for location: London (51.5072 / 0.1276)

Sorry there are no passes over London.